TimeCST,TemperatureF,Dew PointF,Humidity,Sea Level PressureIn,VisibilityMPH,Wind Direction,Wind SpeedMPH,Gust SpeedMPH,PrecipitationIn,Events,Conditions,WindDirDegrees,DateUTC
12:53 AM,37.0,34.0,89,30.20,9.0,SW,6.9,-,N/A,,Overcast,220,2013-01-06 06:53:00
1:53 AM,37.0,34.0,89,30.19,9.0,SW,6.9,-,N/A,,Overcast,230,2013-01-06 07:53:00
2:53 AM,34.0,32.0,92,30.18,8.0,SW,8.1,-,N/A,,Partly Cloudy,230,2013-01-06 08:53:00
3:53 AM,34.0,32.0,92,30.16,7.0,SSW,6.9,-,N/A,,Clear,210,2013-01-06 09:53:00
4:53 AM,34.0,30.9,89,30.15,10.0,SW,4.6,-,N/A,,Clear,230,2013-01-06 10:53:00
5:53 AM,35.1,30.9,85,30.16,10.0,SW,10.4,-,N/A,,Clear,230,2013-01-06 11:53:00
6:53 AM,34.0,30.0,85,30.18,10.0,WSW,8.1,-,N/A,,Clear,240,2013-01-06 12:53:00
7:53 AM,33.1,30.0,89,30.21,7.0,West,9.2,-,N/A,,Clear,260,2013-01-06 13:53:00
8:53 AM,35.1,32.0,89,30.22,8.0,West,8.1,-,N/A,,Clear,260,2013-01-06 14:53:00
9:46 AM,37.4,30.2,75,30.24,10.0,NW,13.8,18.4,N/A,,Mostly Cloudy,320,2013-01-06 15:46:00
9:53 AM,37.4,28.4,70,30.24,10.0,NW,15.0,-,N/A,,Mostly Cloudy,320,2013-01-06 15:53:00
10:53 AM,37.0,27.0,67,30.26,10.0,NW,10.4,-,N/A,,Overcast,310,2013-01-06 16:53:00
11:53 AM,36.0,27.0,70,30.26,10.0,NNW,15.0,-,N/A,,Overcast,330,2013-01-06 17:53:00
12:10 PM,37.4,26.6,65,30.26,10.0,NNW,12.7,-,N/A,,Scattered Clouds,330,2013-01-06 18:10:00
12:53 PM,37.9,25.0,60,30.27,10.0,North,9.2,17.3,N/A,,Scattered Clouds,350,2013-01-06 18:53:00
1:53 PM,39.9,26.1,58,30.28,10.0,NNW,11.5,-,N/A,,Clear,330,2013-01-06 19:53:00
3:53 PM,41.0,26.1,55,30.32,10.0,NNW,8.1,-,N/A,,Clear,340,2013-01-06 21:53:00
4:53 PM,37.0,27.0,67,30.35,10.0,North,5.8,-,N/A,,Clear,10,2013-01-06 22:53:00
6:53 PM,33.1,25.0,72,30.38,10.0,North,4.6,-,N/A,,Clear,360,2013-01-07 00:53:00
7:53 PM,32.0,24.1,73,30.39,10.0,Calm,Calm,-,N/A,,Clear,0,2013-01-07 01:53:00
9:53 PM,27.0,23.0,85,30.40,8.0,Calm,Calm,-,N/A,,Clear,0,2013-01-07 03:53:00
10:53 PM,26.1,21.9,84,30.42,9.0,Calm,Calm,-,N/A,,Clear,0,2013-01-07 04:53:00
11:53 PM,25.0,23.0,92,30.42,8.0,Calm,Calm,-,N/A,,Clear,0,2013-01-07 05:53:00